Flight Track Log - Related Links

Times and Time Zones

All times are in EDT time to prevent confusion due to time zone crossing. See the EJA269 flight status page for this flight to view local times or setup timezone preferences in your user account.

Time Position Orientation Groundspeed Altitude Reporting Facility
EDT Latitude Longitude Course Direction KTS MPH feet Rate Location/Type
Fri 12:16:20 PM 34.2017 -119.2283 265° West 188 216 300  Level Los Angeles Center
Fri 12:16:45 PM 34.1997 -119.2578 265° West 184 212 1,400 2,259 Climbing Los Angeles Center
Fri 12:17:45 PM 34.1986 -119.3308 269° West 235 270 3,500 2,579 Climbing Los Angeles Center
Fri 12:18:39 PM 34.1833 -119.4111 257° West 295 339 6,300 3,155 Climbing Los Angeles Center
Fri 12:19:41 PM 34.1747 -119.5114 264° West 289 333 9,600 2,419 Climbing Los Angeles Center
Fri 12:20:43 PM 34.1011 -119.5672 212° Southwest 332 382 11,300 1,790 Climbing Los Angeles Center
Fri 12:21:45 PM 34.0317 -119.4825 135° Southeast 358 412 13,300 2,081 Climbing Los Angeles Center
Fri 12:22:47 PM 34.0231 -119.3442 94° East 379 436 15,600 2,081 Climbing Los Angeles Center
Fri 12:23:49 PM 34.0442 -119.2231 78° East 371 427 17,600 1,984 Climbing Los Angeles Center
Fri 12:24:51 PM 34.0664 -119.0914 78° East 373 429 19,700 1,968 Climbing Los Angeles Center
Fri 12:25:54 PM 34.0872 -118.9681 78° East 375 432 21,700 1,920 Climbing Los Angeles Center
Fri 12:26:56 PM 34.1081 -118.8447 78° East 375 432 23,700 1,839 Climbing Los Angeles Center
Fri 12:27:58 PM 34.1267 -118.7306 79° East 369 425 25,500 1,839 Climbing Los Angeles Center
Fri 12:29:00 PM 34.1472 -118.6064 79° East 373 429 27,500 2,129 Climbing Los Angeles Center
Fri 12:30:02 PM 34.1728 -118.4581 78° East 377 434 29,900 1,742 Climbing Los Angeles Center
Fri 12:31:04 PM 34.1928 -118.3353 79° East 374 430 31,100 1,065 Climbing Los Angeles Center
Fri 12:32:06 PM 34.2122 -118.2050 80° East 381 438 32,100 960 Climbing Los Angeles Center
Fri 12:33:09 PM 34.2361 -118.0683 78° East 396 456 33,100 912 Climbing Los Angeles Center
Fri 12:34:11 PM 34.2603 -117.9303 78° East 406 467 34,000 871 Climbing Los Angeles Center
Fri 12:35:13 PM 34.2814 -117.7911 80° East 414 476 34,900 871 Climbing Los Angeles Center
Fri 12:36:15 PM 34.3092 -117.6208 79° East 421 484 35,800 919 Climbing Los Angeles Center
Fri 12:37:17 PM 34.3306 -117.4789 80° East 427 491 36,800 871 Climbing Los Angeles Center
Fri 12:38:19 PM 34.3533 -117.3375 79° East 429 494 37,600 677 Climbing Los Angeles Center
Fri 12:39:21 PM 34.3750 -117.1975 79° East 426 490 38,200 624 Climbing Los Angeles Center
Fri 12:40:24 PM 34.3956 -117.0642 79° East 425 489 38,900 384 Climbing Los Angeles Center
Fri 12:41:26 PM 34.4208 -116.8950 80° East 426 490 39,000 48 Climbing Los Angeles Center
Fri 12:42:28 PM 34.4433 -116.7494 79° East 435 501 39,000  Level Los Angeles Center
Fri 12:43:30 PM 34.4650 -116.6011 80° East 444 511 39,000  Level Los Angeles Center
Fri 12:44:32 PM 34.4886 -116.4497 79° East 454 522 39,000  Level Los Angeles Center
Fri 12:45:34 PM 34.5103 -116.2969 80° East 459 528 39,000  Level Los Angeles Center
Fri 12:46:36 PM 34.5372 -116.1106 80° East 467 537 39,000  Level Los Angeles Center
Fri 12:47:38 PM 34.5603 -115.9553 80° East 470 541 39,000  Level Los Angeles Center
Fri 12:48:40 PM 34.5828 -115.7997 80° East 470 541 39,000  Level Los Angeles Center
Fri 12:49:43 PM 34.6036 -115.6433 81° East 471 542 39,000  Level Los Angeles Center
Fri 12:50:45 PM 34.6281 -115.4722 80° East 472 543 39,000  Level Los Angeles Center
Fri 12:51:47 PM 34.6503 -115.3147 80° East 473 544 39,000  Level Los Angeles Center
Fri 12:52:49 PM 34.6756 -115.1347 80° East 474 545 39,000  Level Los Angeles Center
Fri 12:53:51 PM 34.6969 -114.9783 81° East 472 543 39,000  Level Los Angeles Center
Fri 12:54:53 PM 34.7186 -114.8219 80° East 472 543 39,000  Level Los Angeles Center
Fri 12:55:55 PM 34.7397 -114.6639 81° East 476 548 39,000  Level Los Angeles Center
Fri 12:56:57 PM 34.7614 -114.5089 80° East 471 542 39,000  Level Los Angeles Center
Fri 12:57:59 PM 34.7631 -114.3478 89° East 481 554 39,000  Level Los Angeles Center
Fri 12:59:02 PM 34.7578 -114.1550 92° East 478 550 39,000  Level Los Angeles Center
Fri 01:00:04 PM 34.7539 -113.9919 92° East 483 556 39,000  Level Los Angeles Center
Fri 01:01:06 PM 34.7483 -113.8411 93° East 483 556 39,000  Level Los Angeles Center
Fri 01:02:08 PM 34.7447 -113.6786 92° East 485 558 39,000  Level Los Angeles Center
Fri 01:03:10 PM 34.7389 -113.4833 92° East 488 562 39,000  Level Los Angeles Center
Fri 01:04:12 PM 34.7331 -113.3183 92° East 491 565 39,000  Level Los Angeles Center
Fri 01:05:14 PM 34.7278 -113.1528 92° East 495 570 39,000  Level Los Angeles Center
Fri 01:06:16 PM 34.7217 -112.9892 93° East 492 566 39,000  Level Los Angeles Center
Fri 01:07:39 PM 34.7131 -112.7544 92° East 495 570 39,000  Level Albuquerque Center
Fri 01:08:41 PM 34.7061 -112.5867 93° East 499 574 39,000  Level Albuquerque Center
Fri 01:09:43 PM 34.6961 -112.3864 93° East 499 574 39,000  Level Albuquerque Center
Fri 01:11:47 PM 34.6711 -112.0622 95° East 494 568 39,000  Level Albuquerque Center
Fri 01:12:49 PM 34.6581 -111.8944 95° East 496 571 39,000  Level Albuquerque Center
Fri 01:13:51 PM 34.6456 -111.7267 95° East 497 572 39,000  Level Albuquerque Center
Fri 01:14:53 PM 34.6311 -111.5247 95° East 498 573 39,000  Level Albuquerque Center
Fri 01:15:55 PM 34.6181 -111.3558 95° East 499 574 39,000  Level Albuquerque Center
Fri 01:16:57 PM 34.6047 -111.1872 95° East 501 577 39,000  Level Albuquerque Center
Fri 01:17:59 PM 34.5908 -111.0183 96° East 502 578 39,000  Level Albuquerque Center
Fri 01:19:01 PM 34.5767 -110.8500 96° East 502 578 39,000  Level Albuquerque Center
Fri 01:20:03 PM 34.5608 -110.6489 95° East 500 575 39,000  Level Albuquerque Center
Fri 01:21:05 PM 34.5472 -110.4872 96° East 501 577 39,000  Level Albuquerque Center
Fri 01:22:08 PM 34.5328 -110.3258 96° East 504 580 39,000  Level Albuquerque Center
Fri 01:23:10 PM 34.5158 -110.1372 96° East 505 581 39,000  Level Albuquerque Center
Fri 01:24:12 PM 34.5022 -109.9750 96° East 506 582 39,000  Level Albuquerque Center
Fri 01:25:14 PM 34.4847 -109.7833 96° East 511 588 39,000  Level Albuquerque Center
Fri 01:26:16 PM 34.4700 -109.6197 96° East 511 588 39,000  Level Albuquerque Center
Fri 01:27:18 PM 34.4519 -109.4311 97° East 509 586 39,000  Level Albuquerque Center
Fri 01:28:20 PM 34.4372 -109.2678 96° East 509 586 39,000  Level Albuquerque Center
Fri 01:29:22 PM 34.4378 -109.0761 90° East 516 594 39,000  Level Albuquerque Center
Fri 01:30:24 PM 34.4669 -108.9114 78° East 522 601 39,000  Level Albuquerque Center
Fri 01:31:26 PM 34.5019 -108.7222 77° East 520 598 39,000  Level Albuquerque Center
Fri 01:32:28 PM 34.5314 -108.5594 78° East 519 597 39,000  Level Albuquerque Center
Fri 01:33:30 PM 34.5650 -108.3739 78° East 516 594 39,000  Level Albuquerque Center
Fri 01:34:32 PM 34.5953 -108.2064 78° East 519 597 39,000  Level Albuquerque Center
Fri 01:35:34 PM 34.6267 -108.0306 78° East 521 600 39,000  Level Albuquerque Center
Fri 01:36:36 PM 34.6564 -107.8592 78° East 520 598 39,000  Level Albuquerque Center
Fri 01:37:38 PM 34.6869 -107.6878 78° East 522 601 39,000  Level Albuquerque Center
Fri 01:38:40 PM 34.7231 -107.4786 78° East 524 603 39,000  Level Albuquerque Center
Fri 01:39:43 PM 34.7514 -107.3044 79° East 526 605 39,000  Level Albuquerque Center
Fri 01:40:45 PM 34.7839 -107.1172 78° East 528 608 39,000  Level Albuquerque Center
Fri 01:41:47 PM 34.8125 -106.9422 79° East 529 609 39,000  Level Albuquerque Center
Fri 01:42:49 PM 34.8444 -106.7578 78° East 528 608 39,000  Level Albuquerque Center
Fri 01:43:51 PM 34.8725 -106.5817 79° East 531 611 39,000  Level Albuquerque Center
Fri 01:44:53 PM 34.8997 -106.4064 79° East 531 611 39,000  Level Albuquerque Center
Fri 01:45:55 PM 34.9283 -106.2306 79° East 531 611 39,000  Level Albuquerque Center
Fri 01:46:57 PM 34.9558 -106.0550 79° East 532 612 39,000  Level Albuquerque Center
Fri 01:47:59 PM 34.9886 -105.8450 79° East 530 610 39,000  Level Albuquerque Center
Fri 01:49:01 PM 35.0158 -105.6681 79° East 532 612 39,000  Level Albuquerque Center
Fri 01:50:03 PM 35.0425 -105.4925 79° East 535 616 39,000  Level Albuquerque Center
Fri 01:51:05 PM 35.0703 -105.3147 79° East 531 611 39,000  Level Albuquerque Center
Fri 01:52:07 PM 35.0964 -105.1342 80° East 534 615 39,000  Level Albuquerque Center
Fri 01:53:09 PM 35.1333 -104.9261 78° East 533 613 39,000  Level Albuquerque Center
Fri 01:54:11 PM 35.1711 -104.7483 75° East 534 615 39,000  Level Albuquerque Center
Fri 01:55:13 PM 35.2069 -104.5717 76° East 537 618 39,000  Level Albuquerque Center
Fri 01:56:15 PM 35.2439 -104.3939 76° East 540 621 39,000  Level Albuquerque Center
Fri 01:57:17 PM 35.2800 -104.2164 76° East 539 620 39,000  Level Albuquerque Center
Fri 01:58:20 PM 35.3153 -104.0394 76° East 536 617 39,000  Level Albuquerque Center
Fri 01:59:22 PM 35.3542 -103.8411 76° East 533 613 39,000  Level Albuquerque Center
Fri 02:00:24 PM 35.3903 -103.6594 76° East 539 620 39,000  Level Albuquerque Center
Fri 02:01:26 PM 35.4253 -103.4772 77° East 544 626 39,000  Level Albuquerque Center
Fri 02:02:28 PM 35.4597 -103.2944 77° East 544 626 39,000  Level Albuquerque Center
Fri 02:03:30 PM 35.5000 -103.0814 77° East 546 628 39,000  Level Albuquerque Center
Fri 02:04:32 PM 35.5344 -102.8978 77° East 547 629 39,000  Level Albuquerque Center
Fri 02:05:34 PM 35.5653 -102.7317 77° East 548 631 39,000  Level Albuquerque Center
Fri 02:06:36 PM 35.5983 -102.5478 77° East 550 633 39,000  Level Albuquerque Center
Fri 02:07:38 PM 35.6425 -102.3281 76° East 551 634 39,000  Level Albuquerque Center
Fri 02:08:40 PM 35.6856 -102.1456 74° East 552 635 39,000  Level Albuquerque Center
Fri 02:09:42 PM 35.7253 -101.9611 75° East 554 638 39,000  Level Albuquerque Center
Fri 02:10:44 PM 35.7661 -101.7781 75° East 553 636 39,000  Level Albuquerque Center
Fri 02:11:46 PM 35.8058 -101.5933 75° East 554 638 39,000  Level Albuquerque Center
Fri 02:12:48 PM 35.8467 -101.4097 75° East 554 638 39,000  Level Albuquerque Center
Fri 02:13:50 PM 35.8847 -101.2258 76° East 552 635 39,000  Level Albuquerque Center
Fri 02:14:52 PM 35.9236 -101.0417 75° East 553 636 39,000  Level Albuquerque Center
Fri 02:15:54 PM 35.9678 -100.8383 75° East 555 639 39,000  Level Albuquerque Center
Fri 02:16:57 PM 36.0047 -100.6528 76° East 555 639 39,000  Level Albuquerque Center
Fri 02:17:59 PM 36.0431 -100.4686 76° East 555 639 39,000  Level Albuquerque Center
Fri 02:19:01 PM 36.0886 -100.2467 76° East 554 638 39,000  Level Albuquerque Center
Fri 02:20:03 PM 36.1264 -100.0617 76° East 554 638 39,000  Level Albuquerque Center
Fri 02:21:05 PM 36.1644 -99.8772 76° East 552 635 39,000  Level Albuquerque Center
Fri 02:22:07 PM 36.2017 -99.6900 76° East 555 639 39,000  Level Albuquerque Center
Fri 02:23:21 PM 36.2453 -99.4672 76° East 553 636 39,000  Level Kansas City Center
Fri 02:24:23 PM 36.2814 -99.2794 77° East 553 636 39,000  Level Kansas City Center
Fri 02:25:25 PM 36.3186 -99.0911 76° East 553 636 39,000  Level Kansas City Center
Fri 02:26:27 PM 36.3544 -98.9022 77° East 553 636 39,000  Level Kansas City Center
Fri 02:27:29 PM 36.3897 -98.7147 77° East 554 638 39,000  Level Kansas City Center
Fri 02:28:32 PM 36.4322 -98.4894 77° East 554 638 39,000  Level Kansas City Center
Fri 02:29:34 PM 36.4678 -98.3017 77° East 554 638 39,000  Level Kansas City Center
Fri 02:30:36 PM 36.5019 -98.1147 77° East 554 638 39,000  Level Kansas City Center
Fri 02:31:38 PM 36.5353 -97.9267 78° East 554 638 39,000  Level Kansas City Center
Fri 02:32:40 PM 36.5719 -97.7417 76° East 554 638 39,000  Level Kansas City Center
Fri 02:33:42 PM 36.6053 -97.5522 78° East 554 638 39,000  Level Kansas City Center
Fri 02:34:44 PM 36.6464 -97.3256 77° East 555 639 39,000  Level Kansas City Center
Fri 02:35:46 PM 36.6781 -97.1375 78° East 555 639 39,000  Level Kansas City Center
Fri 02:36:48 PM 36.7142 -96.9400 77° East 552 635 39,000  Level Kansas City Center
Fri 02:37:50 PM 36.7469 -96.7486 78° East 555 639 39,000  Level Kansas City Center
Fri 02:38:52 PM 36.7792 -96.5600 78° East 559 643 39,000  Level Kansas City Center
Fri 02:39:54 PM 36.8111 -96.3697 78° East 558 642 39,000  Level Kansas City Center
Fri 02:40:56 PM 36.8428 -96.1800 78° East 558 642 39,000  Level Kansas City Center
Fri 02:41:58 PM 36.8756 -95.9892 78° East 558 642 39,000  Level Kansas City Center
Fri 02:43:01 PM 36.9053 -95.7975 79° East 558 642 39,000  Level Kansas City Center
Fri 02:44:03 PM 36.9378 -95.6056 78° East 558 642 39,000  Level Kansas City Center
Fri 02:45:05 PM 36.9739 -95.3753 79° East 558 642 39,000  Level Kansas City Center
Fri 02:46:07 PM 37.0039 -95.1844 79° East 558 642 39,000  Level Kansas City Center
Fri 02:47:09 PM 37.0342 -94.9917 79° East 558 642 39,000  Level Kansas City Center
Fri 02:48:11 PM 37.0642 -94.7983 79° East 560 644 39,000  Level Kansas City Center
Fri 02:49:13 PM 37.0942 -94.6061 79° East 560 644 39,000  Level Kansas City Center
Fri 02:50:15 PM 37.1244 -94.4136 79° East 560 644 39,000  Level Kansas City Center
Fri 02:51:17 PM 37.1536 -94.2222 79° East 560 644 39,000  Level Kansas City Center
Fri 02:52:19 PM 37.1864 -94.0022 79° East 560 644 39,000  Level Kansas City Center
Fri 02:53:21 PM 37.2142 -93.8108 80° East 560 644 39,000  Level Kansas City Center
Fri 02:54:23 PM 37.2414 -93.6172 80° East 560 644 39,000  Level Kansas City Center
Fri 02:55:25 PM 37.2692 -93.4250 80° East 560 644 39,000  Level Kansas City Center
Fri 02:56:28 PM 37.2950 -93.2297 81° East 561 646 39,000  Level Kansas City Center
Fri 02:57:30 PM 37.3275 -93.0000 80° East 561 646 39,000  Level Kansas City Center
Fri 02:58:32 PM 37.3544 -92.8067 80° East 561 646 39,000  Level Kansas City Center
Fri 03:01:38 PM 37.4331 -92.2264 81° East 564 649 39,000  Level Kansas City Center
Fri 03:02:40 PM 37.4636 -91.9933 81° East 565 650 39,000  Level Kansas City Center
Fri 03:03:42 PM 37.4886 -91.7997 81° East 565 650 39,000  Level Kansas City Center
Fri 03:04:44 PM 37.5131 -91.6033 81° East 566 651 39,000  Level Kansas City Center
Fri 03:05:46 PM 37.5378 -91.4086 81° East 565 650 39,000  Level Kansas City Center
Fri 03:06:48 PM 37.5622 -91.2125 81° East 566 651 39,000  Level Kansas City Center
Fri 03:07:50 PM 37.5856 -91.0144 81° East 567 652 39,000  Level Kansas City Center
Fri 03:08:52 PM 37.6133 -90.7778 82° East 568 654 39,000  Level Kansas City Center
Fri 03:09:54 PM 37.6347 -90.5917 82° East 568 654 39,000  Level Kansas City Center
Fri 03:10:57 PM 37.6564 -90.3975 82° East 568 654 39,000  Level Kansas City Center
Fri 03:11:59 PM 37.6797 -90.1978 82° East 571 657 39,000  Level Kansas City Center
Fri 03:13:01 PM 37.7014 -90.0000 82° East 573 659 39,000  Level Kansas City Center
Fri 03:14:03 PM 37.7283 -89.7639 82° East 572 658 39,000  Level Kansas City Center
Fri 03:15:05 PM 37.7486 -89.5661 83° East 572 658 39,000  Level Kansas City Center
Fri 03:16:07 PM 37.7728 -89.3444 82° East 572 658 39,000  Level Kansas City Center
Fri 03:17:09 PM 37.7928 -89.1464 83° East 571 657 39,000  Level Kansas City Center
Fri 03:18:11 PM 37.8122 -88.9536 83° East 568 654 39,000  Level Kansas City Center
Fri 03:19:13 PM 37.8319 -88.7419 83° East 567 652 39,000  Level Kansas City Center
Fri 03:20:15 PM 37.8533 -88.5597 81° East 567 652 39,000  Level Kansas City Center
Fri 03:21:17 PM 37.8711 -88.3617 83° East 565 650 39,000  Level Kansas City Center
Fri 03:22:19 PM 37.8942 -88.1256 83° East 565 650 39,000  Level Kansas City Center
Fri 03:23:22 PM 37.9131 -87.9281 83° East 565 650 39,000  Level Kansas City Center
Fri 03:24:24 PM 37.9308 -87.7319 83° East 565 650 39,000  Level Kansas City Center
Fri 03:25:32 PM 37.9519 -87.4983 83° East 562 647 39,000  Level Indianapolis Center
Fri 03:26:34 PM 37.9689 -87.3022 84° East 562 647 39,000  Level Indianapolis Center
Fri 03:27:36 PM 37.9850 -87.1078 84° East 562 647 39,000  Level Indianapolis Center
Fri 03:28:38 PM 38.0017 -86.9133 84° East 562 647 39,000  Level Indianapolis Center
Fri 03:29:40 PM 38.0167 -86.7178 84° East 562 647 39,000  Level Indianapolis Center
Fri 03:30:42 PM 38.0364 -86.4828 84° East 562 647 39,000  Level Indianapolis Center
Fri 03:31:44 PM 38.0517 -86.2878 84° East 562 647 39,000  Level Indianapolis Center
Fri 03:32:47 PM 38.0664 -86.0908 85° East 561 646 39,000  Level Indianapolis Center
Fri 03:33:49 PM 38.0800 -85.8944 85° East 561 646 39,000  Level Indianapolis Center
Fri 03:34:51 PM 38.0975 -85.6997 83° East 559 643 39,000  Level Indianapolis Center
Fri 03:35:53 PM 38.1097 -85.5014 85° East 559 643 39,000  Level Indianapolis Center
Fri 03:36:55 PM 38.1294 -85.2658 84° East 559 643 39,000  Level Indianapolis Center
Fri 03:37:57 PM 38.1439 -85.0903 84° East 558 642 39,000  Level Indianapolis Center
Fri 03:38:59 PM 38.1619 -84.8589 84° East 559 643 39,000  Level Indianapolis Center
Fri 03:40:02 PM 38.1772 -84.6611 84° East 559 643 39,000  Level Indianapolis Center
Fri 03:41:03 PM 38.1897 -84.4650 85° East 560 644 39,000  Level Indianapolis Center
Fri 03:42:05 PM 38.2022 -84.2742 85° East 550 633 39,000  Level Indianapolis Center
Fri 03:43:07 PM 38.2153 -84.0839 85° East 545 627 39,000  Level Indianapolis Center
Fri 03:44:10 PM 38.2281 -83.8956 85° East 540 621 39,000  Level Indianapolis Center
Fri 03:45:12 PM 38.2419 -83.6744 85° East 539 620 39,000  Level Indianapolis Center
Fri 03:46:14 PM 38.2553 -83.4831 85° East 539 620 39,000  Level Indianapolis Center
Fri 03:47:16 PM 38.2672 -83.2919 85° East 539 620 39,000  Level Indianapolis Center
Fri 03:48:18 PM 38.2786 -83.1033 86° East 537 618 39,000  Level Indianapolis Center
Fri 03:49:20 PM 38.2903 -82.9125 85° East 537 618 39,000 -339 Level Indianapolis Center
Fri 03:50:22 PM 38.3008 -82.7211 86° East 537 618 38,300 -871 Descending Indianapolis Center
Fri 03:51:24 PM 38.3133 -82.5036 86° East 532 612 37,200 -1,016 Descending Indianapolis Center
Fri 03:52:26 PM 38.3214 -82.3431 86° East 520 598 36,200 -581 Descending Indianapolis Center
Fri 03:53:28 PM 38.3322 -82.1639 86° East 513 590 36,000 -96 Descending Indianapolis Center
Fri 03:54:31 PM 38.3411 -81.9383 87° East 527 606 36,000  Level Indianapolis Center
Fri 03:55:33 PM 38.3483 -81.7461 87° East 541 623 36,000  Level Indianapolis Center
Fri 03:56:35 PM 38.3417 -81.5558 92° East 542 624 36,000 -484 Level Indianapolis Center
Fri 03:57:37 PM 38.3350 -81.3675 93° East 542 624 35,000 -726 Descending Indianapolis Center
Fri 03:58:39 PM 38.3272 -81.1467 93° East 530 610 34,500 -726 Descending Indianapolis Center
Fri 03:59:41 PM 38.3208 -80.9667 93° East 518 596 33,500 -726 Descending Indianapolis Center
Fri 04:00:43 PM 38.3147 -80.7864 92° East 514 592 33,000 -242 Descending Indianapolis Center
Fri 04:01:45 PM 38.3061 -80.5981 93° East 530 610 33,000  Level Indianapolis Center
Fri 04:02:33 PM 38.3058 -80.4606 90° East 529 609 33,000  Level Washington Center
Fri 04:03:33 PM 38.3422 -80.2803 76° East 523 602 33,000  Level Washington Center
Fri 04:04:31 PM 38.3781 -80.1075 75° East 517 595 33,000  Level Washington Center
Fri 04:05:32 PM 38.4136 -79.9350 75° East 512 589 33,000 -197 Level Washington Center
Fri 04:06:33 PM 38.4492 -79.7567 76° East 506 582 32,600 -1,866 Descending Washington Center
Fri 04:07:31 PM 38.4869 -79.5653 76° East 506 582 29,300 -2,975 Descending Washington Center
Fri 04:08:32 PM 38.5239 -79.3972 74° East 501 577 26,700 -2,479 Descending Washington Center
Fri 04:09:32 PM 38.5539 -79.2369 76° East 487 560 24,300 -2,164 Descending Washington Center
Fri 04:10:34 PM 38.5789 -79.0947 77° East 465 535 22,300 -1,966 Descending Washington Center
Fri 04:11:31 PM 38.6086 -78.9261 77° East 445 512 20,400 -2,339 Descending Washington Center
Fri 04:12:32 PM 38.6289 -78.7994 78° East 429 494 17,700 -2,380 Descending Washington Center
Fri 04:13:32 PM 38.6636 -78.6600 72° East 410 472 15,600 -2,132 Descending Washington Center
Fri 04:14:33 PM 38.6961 -78.5308 72° East 398 458 13,400 -2,033 Descending Washington Center
Fri 04:15:33 PM 38.7219 -78.4122 74° East 367 422 11,500 -1,576 Descending Washington Center
Fri 04:16:31 PM 38.7719 -78.3208 55° Northeast 343 395 10,300 -1,119 Descending Washington Center
Fri 04:17:31 PM 38.8539 -78.3000 11° North 274 315 9,300 -992 Descending Washington Center
Fri 04:18:32 PM 38.9136 -78.2381 39° Northeast 274 315 8,300 -1,033 Descending Washington Center
Fri 04:19:33 PM 38.9347 -78.1214 77° East 281 323 7,200 -1,041 Descending Washington Center
Fri 04:20:33 PM 38.9453 -78.0150 83° East 286 329 6,200 -661 Descending Washington Center
Fri 04:21:31 PM 38.9536 -77.9139 84° East 286 329 5,900 -60 Descending Washington Center
Fri 04:23:53 PM 38.9500 -77.6500 91° East 293 337 6,000 30 Climbing Potomac TRACON
Fri 04:24:53 PM 39.0000 -77.5833 46° Northeast 297 342 6,000  Level Potomac TRACON
Fri 04:25:54 PM 39.0833 -77.5833 360° North 260 299 6,000  Level Potomac TRACON
Fri 04:26:54 PM 39.1500 -77.5667 11° North 237 273 6,000 -200 Level Potomac TRACON
Fri 04:27:54 PM 39.1667 -77.4833 76° East 242 278 5,600 -700 Descending Potomac TRACON
Fri 04:28:54 PM 39.1333 -77.4500 142° Southeast 166 191 4,600 -900 Descending Potomac TRACON
Fri 04:29:54 PM 39.0833 -77.4500 180° South 147 169 3,800 -1,091 Descending Potomac TRACON
Fri 04:30:55 PM 39.0500 -77.4667 201° Southwest 161 185 2,400 -1,339 Descending Potomac TRACON
Fri 04:31:55 PM 39.0000 -77.4667 180° South 135 155 1,100 -1,300 Descending Potomac TRACON
Fri 04:33:00 PM 38.9474 -77.4599 165° South  Level Estimated

Login

Don't have an account? Register now (free) for customized features, flight alerts, and more!